This is the latest recevied weather packets stored in our database for station/object KC0CAU. If no packets are shown the sender has not sent any weather packets the latest 10 day(s).
| Time | Temp. | Humidity | Pressure | Rain* | Wind** | Luminosity | Snow |
|---|---|---|---|---|---|---|---|
| 1777768234 | 18.89° C | 38% | 1010.8 hPa | 0 mm | - | - | - |
| 1777767334 | 19.44° C | 38% | 1010.8 hPa | 0 mm | - | - | - |
| 1777766434 | 19.44° C | 38% | 1010.7 hPa | 0 mm | - | - | - |
| 1777765534 | 20° C | 37% | 1010.6 hPa | 0 mm | - | - | - |
| 1777764632 | 20° C | 36% | 1010.5 hPa | 0 mm | - | - | - |
| 1777763731 | 20° C | 35% | 1010.4 hPa | 0 mm | - | - | - |
| 1777762832 | 20° C | 32% | 1010.5 hPa | 0 mm | - | - | - |
| 1777761930 | 20.56° C | 32% | 1010.5 hPa | 0 mm | - | - | - |
| 1777761029 | 20.56° C | 31% | 1010.5 hPa | 0 mm | - | - | - |
| 1777760128 | 20.56° C | 33% | 1010.4 hPa | 0 mm | - | - | - |
| 1777759228 | 21.67° C | 33% | 1010.4 hPa | 0 mm | - | - | - |
| 1777758336 | 21.11° C | 32% | 1010.1 hPa | 0 mm | - | - | - |
| 1777757429 | 21.67° C | 31% | 1010.2 hPa | 0 mm | - | - | - |
| 1777756528 | 21.11° C | 32% | 1010.3 hPa | 0 mm | - | - | - |
| 1777755629 | 21.67° C | 30% | 1010.3 hPa | 0 mm | - | - | - |
| 1777754722 | 22.22° C | 32% | 1010.3 hPa | 0 mm | - | - | - |
| 1777753820 | 21.67° C | 34% | 1010.6 hPa | 0 mm | - | - | - |
| 1777752919 | 21.67° C | 35% | 1010.7 hPa | 0 mm | - | - | - |
| 1777752014 | 21.11° C | 35% | 1010.8 hPa | 0 mm | - | - | - |
| 1777751112 | 21.11° C | 35% | 1011.1 hPa | 0 mm | - | - | - |
| 1777750211 | 20.56° C | 36% | 1011 hPa | 0 mm | - | - | - |
| 1777749309 | 21.11° C | 35% | 1011.2 hPa | 0 mm | - | - | - |
| 1777748414 | 20.56° C | 36% | 1011.5 hPa | 0 mm | - | - | - |
| 1777747503 | 20° C | 36% | 1011.8 hPa | 0 mm | - | - | - |
| 1777746602 | 20° C | 37% | 1011.7 hPa | 0 mm | - | - | - |
* Rain latest hour (hover to see other rain measurements)
** Current wind speed in m/s (hover to see current wind gust speed)